Date,TemperatureHighF,TemperatureAvgF,TemperatureLowF,DewpointHighF,DewpointAvgF,DewpointLowF,HumidityHigh,HumidityAvg,HumidityLow,PressureMaxIn,PressureMinIn,WindSpeedMaxMPH,WindSpeedAvgMPH,GustSpeedMaxMPH,PrecipitationSumIn
2013-1-1,29,15,9,19,10,5,90,82,64,0.00,40.00,1,0,2,0.15
2013-1-2,18,15,13,15,12,10,90,87,84,0.00,40.00,2,0,3,0.02
2013-1-3,26,12,7,17,8,3,86,83,69,0.00,40.00,1,0,3,0.00
2013-1-4,20,15,10,17,12,6,90,87,84,0.00,40.00,1,0,3,0.00
2013-1-5,29,21,14,24,19,11,95,90,82,0.00,40.00,1,0,3,0.01
2013-1-6,27,22,20,23,20,18,94,91,81,0.00,40.00,1,0,4,0.01
2013-1-7,33,25,20,28,23,18,96,90,80,0.00,40.00,2,0,4,0.06
2013-1-8,33,28,23,31,25,20,94,87,73,0.00,40.00,2,1,5,0.01
2013-1-9,39,33,22,34,27,21,95,79,51,0.00,40.00,6,3,15,0.28
2013-1-10,29,21,15,23,11,4,85,63,52,0.00,40.00,4,2,10,0.01
2013-1-11,26,14,4,10,5,-1,83,70,49,0.00,40.00,2,1,6,0.00
2013-1-12,23,9,0,10,0,-5,81,69,40,0.00,40.00,2,0,5,0.00
2013-1-13,26,14,5,9,6,1,83,72,48,0.00,40.00,2,1,7,0.00
2013-1-14,26,15,11,13,10,8,87,80,58,0.00,40.00,2,0,3,0.00
2013-1-15,36,20,12,23,15,9,91,81,49,0.00,40.00,1,0,2,0.03
2013-1-16,33,17,7,23,11,3,91,79,52,0.00,40.00,1,0,3,0.01
2013-1-17,32,18,15,22,14,12,91,85,64,0.00,40.00,1,0,3,0.01
2013-1-18,30,20,14,20,15,11,90,82,66,0.00,40.00,1,0,5,0.01
2013-1-19,39,24,19,21,17,14,83,75,49,0.00,40.00,1,0,3,0.00
2013-1-20,40,25,17,20,17,14,86,72,45,0.00,40.00,1,0,3,0.00
2013-1-21,35,20,12,22,14,9,91,79,54,0.00,40.00,2,0,3,0.00
2013-1-22,28,18,14,20,14,11,89,83,64,0.00,40.00,1,0,3,0.00
2013-1-23,26,23,18,25,19,15,94,85,70,0.00,40.00,4,1,6,0.00
2013-1-24,33,25,12,25,21,8,93,85,73,0.00,40.00,2,1,6,0.20
2013-1-25,35,29,26,30,27,25,97,93,83,0.00,40.00,1,0,4,0.02
2013-1-26,36,26,23,27,23,21,95,89,66,0.00,40.00,1,0,3,0.01
2013-1-27,33,22,16,23,19,13,95,90,65,0.00,40.00,1,0,3,0.04
2013-1-28,27,21,14,23,18,11,93,88,80,0.00,40.00,1,0,2,0.01
2013-1-29,37,28,20,26,22,18,94,80,51,0.00,40.00,2,0,7,0.01
2013-1-30,46,32,23,29,24,21,95,77,45,0.00,40.00,2,1,5,0.08
2013-1-31,42,32,25,30,26,22,92,81,63,0.00,40.00,1,0,3,0.02